When you browse on this site, cookies collect data to enhance your experience and personalize the content and advertising you see.
Visit our Privacy Policy to learn more. By continuing to use the site, you agree to this use of cookies and data.
  • In France
  • List of Countries
  • For 7 days
  • Water Temperature
  • Weather Map
  • Weather Widgets
  • user-avatar
    Login

    Hourly Weather Khulna

    Today, 2 June, Tuesday

    Time Temperature Precipitation Wind Pressure Humidity
    00:00 +30°C° 0 mm 2 mps 754 mmHg 80%
    01:00 +30°C° 0.1 mm 3 mps 754 mmHg 81%
    02:00 +30°C° 0.1 mm 3 mps 753 mmHg 82%
    03:00 +30°C° 0.1 mm 3 mps 753 mmHg 83%
    04:00 +30°C° 0.2 mm 3 mps 753 mmHg 82%
    05:00 +31°C° 0.2 mm 3 mps 753 mmHg 82%
    06:00 +31°C° 0 mm 2 mps 754 mmHg 78%
    07:00 +33°C° 0 mm 3 mps 754 mmHg 72%
    08:00 +34°C° 0 mm 4 mps 754 mmHg 66%
    09:00 +36°C° 0 mm 5 mps 754 mmHg 60%
    10:00 +37°C° 0 mm 5 mps 754 mmHg 56%
    11:00 +39°C° 0 mm 5 mps 754 mmHg 52%
    12:00 +40°C° 0 mm 5 mps 754 mmHg 47%
    13:00 +40°C° 0 mm 5 mps 753 mmHg 45%
    14:00 +41°C° 0 mm 5 mps 752 mmHg 42%
    15:00 +41°C° 0 mm 5 mps 751 mmHg 40%
    16:00 +40°C° 0 mm 5 mps 751 mmHg 45%
    17:00 +39°C° 0 mm 6 mps 751 mmHg 49%
    18:00 +36°C° 0 mm 6 mps 750 mmHg 54%
    19:00 +35°C° 0.1 mm 6 mps 751 mmHg 60%
    20:00 +34°C° 0.1 mm 6 mps 752 mmHg 67%
    21:00 +33°C° 0.1 mm 5 mps 752 mmHg 73%
    22:00 +33°C° 0.1 mm 5 mps 752 mmHg 74%
    23:00 +32°C° 0.1 mm 5 mps 752 mmHg 76%

    Tomorrow, 3 June, Wednesday

    Time Temperature Precipitation Wind Pressure Humidity
    00:00 +32°C° 0.1 mm 5 mps 752 mmHg 77%
    01:00 +32°C° 0 mm 5 mps 752 mmHg 77%
    02:00 +32°C° 0 mm 5 mps 752 mmHg 77%
    03:00 +32°C° 0 mm 4 mps 751 mmHg 76%
    04:00 +32°C° 0 mm 4 mps 751 mmHg 77%
    05:00 +32°C° 0 mm 4 mps 752 mmHg 78%
    06:00 +32°C° 0 mm 4 mps 752 mmHg 79%
    07:00 +33°C° 0 mm 5 mps 752 mmHg 73%
    08:00 +35°C° 0 mm 5 mps 753 mmHg 67%
    09:00 +36°C° 0 mm 5 mps 753 mmHg 61%
    10:00 +39°C° 0.1 mm 5 mps 753 mmHg 54%
    11:00 +40°C° 0.1 mm 5 mps 753 mmHg 48%
    12:00 +42°C° 0.1 mm 5 mps 752 mmHg 41%
    13:00 +42°C° 0 mm 6 mps 751 mmHg 42%
    14:00 +41°C° 0 mm 6 mps 751 mmHg 42%
    15:00 +41°C° 0 mm 6 mps 750 mmHg 42%
    16:00 +40°C° 0.2 mm 5 mps 750 mmHg 47%
    17:00 +37°C° 0.2 mm 3 mps 750 mmHg 51%
    18:00 +36°C° 0.2 mm 2 mps 750 mmHg 55%
    19:00 +35°C° 1.2 mm 2 mps 751 mmHg 64%
    20:00 +33°C° 1.2 mm 3 mps 752 mmHg 72%
    21:00 +31°C° 1.2 mm 3 mps 753 mmHg 80%
    22:00 +31°C° 0.7 mm 3 mps 752 mmHg 80%
    23:00 +31°C° 0.7 mm 3 mps 752 mmHg 81%

    Day after tomorrow, 4 June, Thursday

    Time Temperature Precipitation Wind Pressure Humidity
    00:00 +31°C° 0.7 mm 3 mps 752 mmHg 81%
    01:00 +30°C° 0 mm 3 mps 752 mmHg 82%
    02:00 +30°C° 0 mm 3 mps 752 mmHg 82%
    03:00 +30°C° 0 mm 2 mps 751 mmHg 83%
    04:00 +30°C° 0 mm 2 mps 752 mmHg 82%
    05:00 +30°C° 0 mm 3 mps 752 mmHg 81%
    06:00 +30°C° 0 mm 3 mps 752 mmHg 80%
    07:00 +33°C° 0.4 mm 3 mps 752 mmHg 73%
    08:00 +35°C° 0.4 mm 4 mps 753 mmHg 65%
    09:00 +36°C° 0.4 mm 4 mps 753 mmHg 58%
    10:00 +38°C° 0.1 mm 4 mps 753 mmHg 52%
    11:00 +39°C° 0.1 mm 3 mps 752 mmHg 47%
    12:00 +40°C° 0.1 mm 3 mps 752 mmHg 41%
    13:00 +39°C° 0.2 mm 3 mps 751 mmHg 44%
    14:00 +39°C° 0.2 mm 3 mps 751 mmHg 47%
    15:00 +38°C° 0.2 mm 3 mps 750 mmHg 49%
    16:00 +37°C° 1.6 mm 4 mps 750 mmHg 54%
    17:00 +35°C° 1.6 mm 4 mps 750 mmHg 59%
    18:00 +34°C° 1.6 mm 4 mps 750 mmHg 64%
    19:00 +34°C° 0.1 mm 4 mps 751 mmHg 68%
    20:00 +33°C° 0.1 mm 4 mps 751 mmHg 72%
    21:00 +32°C° 0.1 mm 4 mps 752 mmHg 76%
    22:00 +32°C° 0 mm 4 mps 752 mmHg 78%
    23:00 +32°C° 0 mm 4 mps 752 mmHg 80%

    5 June, Friday

    Time Temperature Precipitation Wind Pressure Humidity
    00:00 +32°C° 0 mm 4 mps 752 mmHg 82%
    01:00 +30°C° 0 mm 3 mps 752 mmHg 83%
    02:00 +30°C° 0 mm 3 mps 751 mmHg 85%
    03:00 +30°C° 0 mm 3 mps 751 mmHg 86%
    04:00 +30°C° 0 mm 3 mps 751 mmHg 86%
    05:00 +30°C° 0 mm 3 mps 751 mmHg 86%
    06:00 +30°C° 0 mm 3 mps 751 mmHg 86%
    07:00 +33°C° 0 mm 3 mps 752 mmHg 78%
    08:00 +35°C° 0 mm 4 mps 752 mmHg 69%
    09:00 +37°C° 0 mm 4 mps 752 mmHg 61%
    10:00 +38°C° 0.3 mm 4 mps 752 mmHg 55%
    11:00 +40°C° 0.3 mm 4 mps 752 mmHg 49%
    12:00 +42°C° 0.3 mm 5 mps 751 mmHg 43%
    13:00 +42°C° 0 mm 4 mps 751 mmHg 43%
    14:00 +42°C° 0 mm 4 mps 750 mmHg 43%
    15:00 +41°C° 0 mm 4 mps 749 mmHg 43%
    16:00 +40°C° 0.2 mm 4 mps 749 mmHg 47%
    17:00 +38°C° 0.2 mm 4 mps 749 mmHg 51%
    18:00 +36°C° 0.2 mm 4 mps 749 mmHg 56%
    19:00 +35°C° 0.3 mm 4 mps 749 mmHg 61%
    20:00 +34°C° 0.3 mm 5 mps 750 mmHg 66%
    21:00 +33°C° 0.3 mm 5 mps 750 mmHg 71%
    22:00 +33°C° 0 mm 5 mps 750 mmHg 73%
    23:00 +33°C° 0 mm 4 mps 751 mmHg 74%

    6 June, Saturday

    Time Temperature Precipitation Wind Pressure Humidity
    00:00 +31°C° 0 mm 3 mps 751 mmHg 76%
    01:00 +31°C° 0 mm 3 mps 750 mmHg 76%
    02:00 +31°C° 0 mm 3 mps 750 mmHg 76%
    03:00 +31°C° 0 mm 3 mps 750 mmHg 76%
    04:00 +31°C° 0 mm 3 mps 750 mmHg 76%
    05:00 +31°C° 0 mm 3 mps 750 mmHg 76%
    06:00 +31°C° 0 mm 3 mps 750 mmHg 77%
    07:00 +34°C° 0 mm 3 mps 750 mmHg 68%
    08:00 +36°C° 0 mm 3 mps 750 mmHg 60%
    09:00 +38°C° 0 mm 3 mps 751 mmHg 51%
    10:00 +39°C° 0 mm 3 mps 750 mmHg 45%
    11:00 +42°C° 0 mm 3 mps 750 mmHg 39%
    12:00 +43°C° 0 mm 3 mps 750 mmHg 32%
    13:00 +42°C° 0 mm 3 mps 749 mmHg 36%
    14:00 +41°C° 0 mm 4 mps 749 mmHg 40%
    15:00 +41°C° 0 mm 5 mps 748 mmHg 43%
    16:00 +40°C° 0.1 mm 5 mps 748 mmHg 46%
    17:00 +39°C° 0.1 mm 5 mps 748 mmHg 49%
    18:00 +38°C° 0.1 mm 6 mps 748 mmHg 51%
    19:00 +36°C° 0 mm 6 mps 748 mmHg 53%
    20:00 +35°C° 0 mm 5 mps 749 mmHg 54%
    21:00 +35°C° 0 mm 5 mps 749 mmHg 56%
    22:00 +34°C° 0 mm 5 mps 749 mmHg 59%
    23:00 +34°C° 0 mm 4 mps 749 mmHg 63%

    7 June, Sunday

    Time Temperature Precipitation Wind Pressure Humidity
    00:00 +33°C° 0 mm 4 mps 749 mmHg 66%
    01:00 +33°C° 0 mm 4 mps 749 mmHg 68%
    02:00 +31°C° 0 mm 3 mps 749 mmHg 69%
    03:00 +31°C° 0 mm 3 mps 749 mmHg 71%
    04:00 +31°C° 0 mm 3 mps 749 mmHg 72%
    05:00 +31°C° 0 mm 3 mps 749 mmHg 73%
    06:00 +31°C° 0 mm 2 mps 749 mmHg 75%
    07:00 +34°C° 0 mm 3 mps 749 mmHg 66%
    08:00 +36°C° 0 mm 3 mps 750 mmHg 58%
    09:00 +38°C° 0 mm 3 mps 750 mmHg 50%
    10:00 +40°C° 0 mm 3 mps 750 mmHg 45%
    11:00 +41°C° 0 mm 2 mps 749 mmHg 40%
    12:00 +42°C° 0 mm 2 mps 749 mmHg 34%
    13:00 +40°C° 0.1 mm 2 mps 748 mmHg 41%
    14:00 +38°C° 0.1 mm 3 mps 748 mmHg 48%
    15:00 +36°C° 0.1 mm 3 mps 747 mmHg 54%
    16:00 +37°C° 0 mm 3 mps 747 mmHg 54%
    17:00 +37°C° 0 mm 4 mps 747 mmHg 55%
    18:00 +37°C° 0 mm 4 mps 747 mmHg 55%
    19:00 +36°C° 0.1 mm 4 mps 747 mmHg 59%
    20:00 +35°C° 0.1 mm 4 mps 748 mmHg 63%
    21:00 +34°C° 0.1 mm 3 mps 748 mmHg 67%
    22:00 +33°C° 0 mm 4 mps 748 mmHg 70%
    23:00 +33°C° 0 mm 4 mps 748 mmHg 73%
    Show more